Regional Weather Roundup
Issued by NWS

Home | Current Version | Previous Version | Graphics & Text | Print | Product List | Glossary Off
Versions: 1 2 3 4 5 6 7 8 9 10 11 12 13 14 15 16 17 18 19 20 21 22 23 24 25 26 27 28 29 30 31 32 33 34 35 36 37 38 39 40 41 42 43 44 45 46 47 48 49 50

000
ASUS43 KFSD 262110
RWRSD

WEATHER ROUNDUP FOR SOUTH DAKOTA
NATIONAL WEATHER SERVICE SIOUX FALLS SD
400 PM CDT WED JUL 26 2017

NOTE: "FAIR" INDICATES FEW OR NO CLOUDS BELOW 12,000 FEET WITH NO
SIGNIFICANT WEATHER AND/OR OBSTRUCTIONS TO VISIBILITY.


SDZ001>005-009-010-012>017-262200-
NORTHWEST AND NORTH CENTRAL SOUTH DAKOTA

CITY           SKY/WX    TMP DP  RH WIND       PRES   REMARKS
BUFFALO          N/A     89  50  26 S8        30.07F
FAITH            N/A     89  49  25 N8        30.12F
MOBRIDGE       SUNNY     87  58  37 NE7       30.07F
$$

SDZ012>016-024>037-041>051-057-063-072>074-262200-
SOUTHWEST AND SOUTH CENTRAL SOUTH DAKOTA

CITY           SKY/WX    TMP DP  RH WIND       PRES   REMARKS
RAPID CTY ARPT MOSUNNY   83  49  30 VRB3      30.17F
PIERRE         MOSUNNY   89  52  28 NE12G20   30.07F
CUSTER         CLOUDY    75  42  30 E9G21     30.31S
ELLSWORTH AFB  CLOUDY    84  48  28 E5        30.17F
PHILIP         MOSUNNY   90  52  27 NE15G24   30.10S
PINE RIDGE     PTSUNNY   84  56  38 E13G21    30.16F
SPEARFISH      FAIR      82  50  32 E14       30.20F
WINNER         FAIR      91  58  32 NE18G25   30.08S
$$

SDZ004>011-016>023-039-040-262200-
NORTHEAST SOUTH DAKOTA

CITY           SKY/WX    TMP DP  RH WIND       PRES   REMARKS
ABERDEEN       SUNNY     86  57  37 N13G21    30.07F
WATERTOWN      MOSUNNY   79  60  52 VRB3      30.08S
BROOKINGS      SUNNY     80  60  50 N13       30.07F
SISSETON         N/A     84  60  44 N9        30.05S
$$

SDZ017-020-022-023-036>040-048>070-262200-
SOUTHEAST SOUTH DAKOTA

CITY           SKY/WX    TMP DP  RH WIND       PRES   REMARKS
SIOUX FALLS    MOSUNNY   84  67  56 N12G22    30.04S
HURON          SUNNY     84  58  40 NE13      30.07S
CHAMBERLAIN    SUNNY     88  58  36 E8        30.08R
MITCHELL       SUNNY     84  61  45 NE13      30.06S
YANKTON        PTSUNNY   82  69  64 NE13      30.02S
$$

ABBREVIATIONS USED IN REMARKS
   TC - TEMPERATURE IN CELSIUS
  WCI - WIND CHILL INDEX
   HX - HEAT INDEX
  VSB - VISIBILITY





USA.gov is the U.S. government's official web portal to all federal, state and local government web resources and services.